Date String (YYYY-MM-DD hh:mm:ss) UTC,Instrument flags,absolute air pressure of the measurement (hPa),sample flow rate (lpm),inlet stack bypass flow (lpm),air temperature of the measurement (°C),ambient temperature measured by the external sensor (°C),aerosol sample conditioner tube jacket temperature (°C),OPC LED temperature (°C),internal box temperature (°C),relative humidity of the measurement (%),span deviation,mass concentration of particles derived from Lorenz-Mie calculation of OPC scattering (μg/m³),mass concentration of particles derived from Lorenz-Mie calculation of OPC scattering (μg/m³),mass concentration of particles derived from Lorenz-Mie calculation of OPC scattering (μg/m³)
DateTimeUTC,F1_M11,P_M11,Q1_M11,Q2_M11,T1_M11,T2_M11,T3_M11,T4_M11,T5_M11,U1_M11,ZSPAN_M11,X0_M11,X2_M11,X1_M11
2023-06-28 21:00:00,SystemResetWarning,0828.4,5.03,000.00,030.9,026.8,000.0,039.1,031.3,34.7,0003.1,0035.94,0012.30,0009.46
2023-06-28 21:01:00,SystemResetWarning,0828.4,4.98,000.00,030.9,027.2,000.0,039.1,031.4,34.9,0003.1,0036.33,0012.35,0009.48
2023-06-28 21:02:00,SystemResetWarning,0828.4,5.02,000.00,031.0,027.5,000.0,039.1,031.5,35.5,0003.3,0037.86,0012.37,0009.48
2023-06-28 21:03:00,SystemResetWarning,0828.4,4.99,000.00,031.3,027.8,000.0,039.1,031.7,34.3,0003.3,0038.80,0012.34,0009.48
2023-06-28 21:04:00,SystemResetWarning,0828.4,4.99,000.00,031.5,027.0,000.0,039.1,031.6,34.4,0003.5,0038.49,0012.27,0009.49
2023-06-28 21:05:00,SystemResetWarning,0828.4,5.01,000.00,031.5,025.5,000.0,039.1,031.3,33.3,0003.4,0037.42,0012.25,0009.50
2023-06-28 21:06:00,SystemResetWarning,0828.4,5.00,000.00,031.5,024.9,000.0,039.1,031.4,30.9,0003.5,0037.98,0012.20,0009.50
2023-06-28 21:07:00,SystemResetWarning,0828.4,5.00,000.00,031.5,025.1,000.0,039.1,031.2,30.4,0003.5,0037.37,0012.15,0009.50
2023-06-28 21:08:00,SystemResetWarning,0828.4,5.01,000.00,031.3,025.5,000.0,039.1,031.1,30.4,0003.3,0036.06,0012.03,0009.49
2023-06-28 21:09:00,SystemResetWarning,0828.4,5.00,000.00,031.2,026.0,000.0,039.2,031.2,31.0,0003.3,0036.48,0012.08,0009.50
2023-06-28 21:10:00,SystemResetWarning,0828.4,5.00,000.00,031.2,026.5,000.0,039.2,031.2,30.9,0003.5,0037.39,0012.00,0009.49
2023-06-28 21:11:00,SystemResetWarning,0828.4,5.00,000.00,031.2,026.9,000.0,039.2,031.3,31.7,0003.6,0036.48,0012.05,0009.47
2023-06-28 21:12:00,SystemResetWarning,0828.4,4.99,000.00,031.2,027.3,000.0,039.2,031.4,33.3,0003.7,0035.74,0011.95,0009.45
2023-06-28 21:13:00,SystemResetWarning,0828.4,5.00,000.00,031.2,027.6,000.0,039.3,031.6,32.0,0003.5,0034.92,0011.86,0009.40
2023-06-28 21:14:00,SystemResetWarning,0828.4,4.99,000.00,031.2,027.1,000.0,039.2,031.7,32.0,0003.7,0034.73,0011.78,0009.33
2023-06-28 21:15:00,SystemResetWarning,0828.3,5.00,000.00,031.2,025.4,000.0,039.2,031.5,32.0,0003.6,0034.28,0011.74,0009.26
2023-06-28 21:16:00,SystemResetWarning,0828.4,5.01,000.00,031.2,024.7,000.0,039.1,031.5,32.0,0003.8,0034.05,0011.63,0009.19
2023-06-28 21:17:00,SystemResetWarning,0828.4,5.01,000.00,031.1,024.9,000.0,039.1,031.2,32.5,0004.2,0032.93,0011.57,0009.12
2023-06-28 21:18:00,SystemResetWarning,0828.4,4.99,000.00,030.9,025.3,000.0,039.1,031.0,32.6,0004.3,0031.71,0011.47,0009.04
2023-06-28 21:19:00,SystemResetWarning,0828.3,4.99,000.00,030.8,025.8,000.0,039.1,031.1,33.3,0004.4,0033.25,0011.47,0008.97
2023-06-28 21:20:00,SystemResetWarning,0828.4,4.98,000.00,030.8,026.3,000.0,039.1,031.2,34.9,0004.5,0034.29,0011.54,0008.90
2023-06-28 21:21:00,SystemResetWarning,0828.3,5.03,000.00,030.8,026.8,000.0,039.1,031.3,33.1,0004.3,0034.01,0011.53,0008.85
2023-06-28 21:22:00,SystemResetWarning,0828.3,4.97,000.00,030.9,027.2,000.0,039.0,031.4,32.1,0004.2,0034.01,0011.46,0008.81
2023-06-28 21:23:00,SystemResetWarning,0828.3,5.01,000.00,031.0,027.5,000.0,039.1,031.5,31.2,0004.2,0032.62,0011.45,0008.78
2023-06-28 21:24:00,SystemResetWarning,0828.4,5.01,000.00,031.0,027.7,000.0,039.1,031.6,31.1,0003.9,0033.07,0011.52,0008.80
2023-06-28 21:25:00,SystemResetWarning,0828.3,4.98,000.00,031.1,026.6,000.0,039.0,031.5,32.1,0003.9,0032.42,0011.54,0008.81
2023-06-28 21:26:00,SystemResetWarning,0828.3,5.01,000.00,031.0,025.2,000.0,039.0,031.3,31.4,0003.9,0031.65,0011.55,0008.85
2023-06-28 21:27:00,SystemResetWarning,0828.4,5.01,000.00,031.0,024.9,000.0,038.9,031.3,32.0,0003.8,0031.93,0011.60,0008.86
2023-06-28 21:28:00,SystemResetWarning,0828.4,5.00,000.00,030.8,025.2,000.0,038.9,031.0,31.5,0003.4,0032.23,0011.62,0008.87
2023-06-28 21:29:00,SystemResetWarning,0828.4,5.00,000.00,030.7,025.6,000.0,038.9,031.0,31.5,0003.3,0032.20,0011.63,0008.88
2023-06-28 21:30:00,SystemResetWarning,0828.3,4.99,000.00,030.7,026.1,000.0,038.9,031.1,31.6,0003.4,0032.57,0011.63,0008.86
2023-06-28 21:31:00,SystemResetWarning,0828.3,5.00,000.00,030.6,026.6,000.0,038.9,031.2,32.5,0003.3,0030.35,0011.39,0008.81
2023-06-28 21:32:00,SystemResetWarning,0828.3,5.01,000.00,030.6,027.0,000.0,038.9,031.3,32.8,0003.4,0030.19,0011.25,0008.77
2023-06-28 21:33:00,SystemResetWarning,0828.3,5.01,000.00,030.6,027.4,000.0,038.9,031.4,32.6,0003.2,0029.61,0011.21,0008.73
2023-06-28 21:34:00,SystemResetWarning,0828.3,4.99,000.00,030.6,027.6,000.0,038.9,031.4,32.7,0003.1,0030.50,0011.16,0008.70
2023-06-28 21:35:00,SystemResetWarning,0828.3,4.98,000.00,030.7,026.8,000.0,038.9,031.5,32.9,0003.2,0029.60,0011.10,0008.68
2023-06-28 21:36:00,SystemResetWarning,0828.3,5.01,000.00,030.6,025.1,000.0,038.8,031.2,32.5,0003.2,0028.94,0011.08,0008.67
2023-06-28 21:37:00,SystemResetWarning,0828.4,5.01,000.00,030.6,024.7,000.0,038.7,031.2,33.4,0003.0,0029.90,0011.13,0008.68
2023-06-28 21:38:00,SystemResetWarning,0828.3,4.99,000.00,030.5,025.0,000.0,038.7,030.9,34.2,0002.8,0031.85,0011.13,0008.68
2023-06-28 21:39:00,SystemResetWarning,0828.3,5.01,000.00,030.4,025.5,000.0,038.7,030.9,33.4,0002.7,0032.36,0011.17,0008.69
2023-06-28 21:40:00,SystemResetWarning,0828.4,5.00,000.00,030.3,026.0,000.0,038.7,031.0,33.3,0002.8,0032.80,0011.16,0008.70
2023-06-28 21:41:00,SystemResetWarning,0828.3,4.99,000.00,030.3,026.5,000.0,038.7,031.1,33.7,0002.4,0034.83,0011.23,0008.75
2023-06-28 21:42:00,SystemResetWarning,0828.3,5.00,000.00,030.3,027.0,000.0,038.7,031.2,33.7,0002.3,0035.81,0011.32,0008.80
2023-06-28 21:43:00,SystemResetWarning,0828.3,5.01,000.00,030.3,027.4,000.0,038.7,031.3,34.2,0002.3,0034.48,0011.41,0008.83
2023-06-28 21:44:00,SystemResetWarning,0828.3,5.00,000.00,030.3,027.7,000.0,038.7,031.4,33.4,0002.8,0034.48,0011.52,0008.88
2023-06-28 21:45:00,SystemResetWarning,0828.3,4.99,000.00,030.4,027.1,000.0,038.7,031.4,33.4,0002.7,0036.08,0011.66,0008.92
2023-06-28 21:46:00,SystemResetWarning,0828.3,4.99,000.00,030.3,025.5,000.0,038.6,031.1,33.5,0003.0,0035.28,0011.74,0008.96
2023-06-28 21:47:00,SystemResetWarning,0828.3,5.00,000.00,030.2,025.0,000.0,038.5,031.0,34.3,0003.2,0035.97,0011.88,0008.99
2023-06-28 21:48:00,SystemResetWarning,0828.3,5.02,000.00,030.2,025.2,000.0,038.5,030.8,34.9,0003.1,0036.23,0011.92,0009.01
2023-06-28 21:49:00,SystemResetWarning,0828.2,5.00,000.00,030.3,025.7,000.0,038.5,030.9,34.8,0003.3,0035.13,0011.91,0009.02
2023-06-28 21:50:00,SystemResetWarning,0828.2,4.97,000.00,030.4,026.3,000.0,038.5,031.1,36.4,0003.3,0034.62,0011.88,0009.06
2023-06-28 21:51:00,SystemResetWarning,0828.2,5.03,000.00,030.7,026.8,000.0,038.5,031.3,35.5,0003.2,0036.64,0011.96,0009.12
2023-06-28 21:52:00,SystemResetWarning,0828.3,4.99,000.00,031.0,027.2,000.0,038.6,031.6,34.8,0003.2,0035.61,0011.93,0009.15
2023-06-28 21:53:00,SystemResetWarning,0828.3,4.99,000.00,031.3,027.4,000.0,038.6,031.7,34.5,0003.3,0033.77,0011.90,0009.18
2023-06-28 21:54:00,SystemResetWarning,0828.2,5.00,000.00,031.5,026.4,000.0,038.6,031.7,31.1,0003.3,0035.41,0011.99,0009.22
2023-06-28 21:55:00,SystemResetWarning,0828.2,5.00,000.00,031.6,025.4,000.0,038.6,031.5,29.8,0003.1,0035.99,0012.03,0009.25
2023-06-28 21:56:00,SystemResetWarning,0828.2,5.00,000.00,031.6,025.4,000.0,038.7,031.4,32.9,0002.9,0034.77,0012.01,0009.26
2023-06-28 21:57:00,SystemResetWarning,0828.2,5.00,000.00,031.5,025.7,000.0,038.8,031.3,33.7,0002.8,0034.12,0011.73,0009.09
2023-06-28 21:58:00,SystemResetWarning,0828.2,5.02,000.00,031.4,026.1,000.0,038.9,031.3,33.8,0002.6,0032.55,0011.25,0008.80
2023-06-28 21:59:00,SystemResetWarning,0828.2,4.97,000.00,031.1,026.7,000.0,039.0,031.6,35.4,0002.7,0031.69,0010.79,0008.52
